Location: Pilipovskiye Korichintsy
(49.1833°N, 27.4667°E)
Time: 00:06:56
(UTC+00:00)

Lacrosse 5 - Pass Details

Date: 04 November 2020
Orbit: 714 x 725 km, 57.0° (Epoch: 30 November)

Event Time Altitude Azimuth Distance (km) Brightness Sun altitude
Rises 18:05:25 0° 301° (WNW) 3,121 6.2 -33.1°
Reaches altitude 10° 18:08:02 10° 290° (WNW) 2,198 5.2 -33.5°
Enters shadow 18:11:22 27° 253° (WSW) 1,352 3.6 -34.1°
